User: anonymous   Login
Location: Cuiry
(49.3858°N, 3.7708°E)
Time: 02:17:55
(UTC+00:00)
Language:

UNK - Orbit

View from above orbital plane
View from above orbital plane
View from above satellite
View from above satellite

Ground track
Ground track

The orbit is defined by the following mean orbital elements,

1 27940U          26073.46115492 +.00000000 +00000-0 +13474-3 0 00007
2 27940  98.3819 248.9296 0011987 297.8067  62.1922 14.69376189    03
Epoch (UTC): 14 March 2026 11:04:03
Eccentricity: 0.0011987
inclination: 98.3819°
perigee height: 655 km
apogee height: 672 km
right ascension of ascending node: 248.9296°
argument of perigee: 297.8067°
revolutions per day: 14.69376189
mean anomaly at epoch: 62.1922°

The dashed part of the orbit path shows where the satellite is in the earth's shadow,  

DLR